Caro, MI

8:33 PM EST on December 11, 2017 (GMT -0500)
Caro

Weather History for KCFS - January, 2013

Change the Weather History Date:

Sunday, January 6, 2013

  Actual Average (KMBS) Record (KMBS)
Temperature  
Mean Temperature 32 °F -  
Max Temperature 34 °F 28 °F 50 °F (1998)
Min Temperature 29 °F 16 °F -9 °F (2014)
Degree Days  
Heating Degree Days 33    
Moisture  
Dew Point 31 °F    
Average Humidity 90    
Maximum Humidity 96    
Minimum Humidity 77    
Precipitation  
Precipitation 0.00 in - - ()
Sea Level Pressure  
Sea Level Pressure 29.96 in    
Wind  
Wind Speed 10 mph (WSW)    
Max Wind Speed 16 mph    
Max Gust Speed 26 mph    
Visibility 5 miles    
Events Rain , Snow    
Averages and records for this station are not official NWS values.
T = Trace of Precipitation, MM = Missing Value Source: NWS Daily Summary

Daily Weather History Graph

Daily Weather History Graph

Search for Another Location

Airport or City:

Trip Planner

Search our weather history database for the weather conditions in past years. The results will help you decide how hot, cold, wet, or windy it might be!

Date:

Astronomy

Jan. 06, 2013 Rise Set
Actual Time 8:06 AM EST 5:13 PM EST
Civil Twilight 7:34 AM EST 5:45 PM EST
Nautical Twilight 6:58 AM EST 6:21 PM EST
Astronomical Twilight 6:23 AM EST 6:56 PM EST
Moon 2:15 AM EST (1/6) 12:43 PM EST (1/6)
Length of Visible Light 10h 11m
Length of Day
9h 06m
Waning Crescent, 33% of the Moon is Illuminated
Jan 6
Waning Crescent
Jan 11
New
Jan 18
First Quarter
Jan 26
Full
Feb 3
Last Quarter

Hourly Weather History & Observations

Time (EST) Temp. Windchill Dew Point Humidity Pressure Visibility Wind Dir Wind Speed Gust Speed Precip Events Conditions
12:15 AM 32.4 °F 24.0 °F 31.1 °F 95% 29.94 in 1.8 mi SSW 10.4 mph - N/A Snow Light Snow
12:35 AM 32.7 °F 24.5 °F 31.6 °F 96% 29.93 in 1.5 mi SSW 10.4 mph - N/A Snow Light Snow
12:54 AM 32.9 °F 22.4 °F 32.0 °F 96% 29.92 in 3.0 mi SSW 16.1 mph 19.6 mph N/A Snow Light Snow
1:15 AM 33.6 °F 23.3 °F 32.0 °F 94% 29.91 in 5.0 mi SSW 16.1 mph 26.5 mph N/A Snow Light Snow
1:35 AM 33.6 °F 24.1 °F 32.0 °F 94% 29.91 in 4.0 mi SSW 13.8 mph 19.6 mph N/A Snow Light Snow
1:54 AM 33.8 °F 24.8 °F 32.0 °F 93% 29.90 in 2.5 mi SW 12.7 mph 18.4 mph N/A Snow Light Snow
2:15 AM 33.8 °F 24.8 °F 32.0 °F 93% 29.90 in 4.0 mi SSW 12.7 mph - N/A Snow Light Snow
2:34 AM 33.8 °F 24.3 °F 32.0 °F 93% 29.89 in 5.0 mi SSW 13.8 mph 18.4 mph N/A Snow Light Snow
3:15 AM 34.0 °F 25.5 °F 32.0 °F 92% 29.89 in 7.0 mi SW 11.5 mph 19.6 mph N/A Snow Light Snow
3:34 AM 34.2 °F 25.7 °F 32.0 °F 92% 29.88 in 7.0 mi SSW 11.5 mph - N/A   Overcast
3:54 AM 34.2 °F 25.2 °F 32.0 °F 92% 29.87 in 7.0 mi SW 12.7 mph - N/A   Overcast
4:15 AM 34.3 °F 25.5 °F 32.0 °F 91% 29.87 in 7.0 mi SSW 12.7 mph - N/A   Overcast
4:34 AM 34.3 °F 25.9 °F 31.8 °F 90% 29.87 in 7.0 mi SW 11.5 mph - N/A   Overcast
4:55 AM 34.2 °F 26.2 °F 31.8 °F 91% 29.85 in 4.0 mi SSW 10.4 mph 18.4 mph N/A Snow Light Snow
5:15 AM 34.0 °F 26.0 °F 32.0 °F 92% 29.85 in 7.0 mi SSW 10.4 mph - N/A   Overcast
5:34 AM 34.0 °F 26.0 °F 32.0 °F 92% 29.85 in 2.0 mi SSW 10.4 mph - N/A Snow Light Snow
5:55 AM 33.4 °F 25.4 °F 32.0 °F 94% 29.85 in 1.5 mi SSW 10.4 mph - N/A Snow Light Snow
6:14 AM 33.3 °F 24.6 °F 32.0 °F 95% 29.84 in 1.8 mi SSW 11.5 mph - N/A Snow Light Snow
6:34 AM 33.1 °F 25.5 °F 32.0 °F 96% 29.85 in 1.5 mi SSW 9.2 mph - N/A Snow Light Snow
6:55 AM 33.3 °F 25.7 °F 32.0 °F 95% 29.85 in 2.0 mi SSW 9.2 mph - N/A Snow Light Snow
7:14 AM 33.4 °F 25.9 °F 32.2 °F 95% 29.85 in 5.0 mi SSW 9.2 mph - N/A   Overcast
7:35 AM 33.4 °F 26.6 °F 32.2 °F 95% 29.85 in 5.0 mi SSW 8.1 mph - N/A   Overcast
7:55 AM 33.6 °F 26.8 °F 32.2 °F 94% 29.85 in 4.0 mi SSW 8.1 mph - N/A   Overcast
8:14 AM 33.8 °F 27.7 °F 32.4 °F 94% 29.85 in 4.0 mi SSW 6.9 mph - N/A   Overcast
8:35 AM 33.8 °F 28.6 °F 32.2 °F 94% 29.85 in 3.0 mi SSW 5.8 mph - N/A   Overcast
8:55 AM 33.8 °F 27.7 °F 32.4 °F 94% 29.85 in 4.0 mi SSW 6.9 mph - N/A   Overcast
9:35 AM 33.8 °F 26.4 °F 32.4 °F 94% 29.86 in 2.5 mi SSW 9.2 mph - N/A   Overcast
9:54 AM 34.0 °F 27.2 °F 32.5 °F 94% 29.87 in 3.0 mi SSW 8.1 mph - N/A   Overcast
10:15 AM 34.3 °F 27.0 °F 32.9 °F 94% 29.87 in 3.0 mi SSW 9.2 mph - N/A   Overcast
10:34 AM 34.3 °F 28.4 °F 32.9 °F 94% 29.87 in 3.0 mi SSW 6.9 mph - N/A   Overcast
10:54 AM 34.3 °F 27.7 °F 32.9 °F 94% 29.87 in 2.5 mi SW 8.1 mph - N/A   Overcast
11:15 AM 34.3 °F 28.4 °F 32.9 °F 94% 29.88 in 2.5 mi SW 6.9 mph - N/A Rain Light Rain
11:34 AM 34.0 °F 28.8 °F 32.5 °F 94% 29.87 in 1.5 mi SW 5.8 mph - N/A Snow Light Snow
11:54 AM 34.0 °F 28.0 °F 32.9 °F 96% 29.87 in 1.5 mi SW 6.9 mph - N/A Snow Light Snow
12:14 PM 34.0 °F 27.2 °F 32.9 °F 96% 29.87 in 1.2 mi SW 8.1 mph - N/A Snow Light Snow
12:34 PM 34.2 °F 27.5 °F 32.9 °F 95% 29.87 in 1.8 mi WSW 8.1 mph - N/A Snow Light Snow
12:55 PM 34.2 °F 26.8 °F 32.9 °F 95% 29.87 in 2.5 mi WSW 9.2 mph - N/A Snow Light Snow
1:14 PM 34.2 °F 26.2 °F 32.9 °F 95% 29.87 in 2.5 mi WSW 10.4 mph - N/A Snow Light Snow
1:34 PM 34.3 °F 27.0 °F 32.9 °F 94% 29.87 in 3.0 mi West 9.2 mph - N/A   Overcast
1:55 PM 34.7 °F 27.5 °F 32.9 °F 93% 29.88 in 2.5 mi West 9.2 mph - N/A Snow Light Snow
2:14 PM 34.7 °F 26.4 °F 32.5 °F 92% 29.89 in 3.0 mi West 11.5 mph - N/A Snow Light Snow
2:34 PM 34.5 °F 27.3 °F 32.0 °F 90% 29.90 in 4.0 mi West 9.2 mph - N/A Snow Light Snow
2:55 PM 34.5 °F 27.9 °F 30.9 °F 87% 29.91 in 7.0 mi West 8.1 mph - N/A   Overcast
3:14 PM 34.0 °F 26.6 °F 30.7 °F 88% 29.92 in 7.0 mi West 9.2 mph - N/A   Overcast
3:34 PM 33.4 °F 25.4 °F 30.4 °F 89% 29.94 in 7.0 mi West 10.4 mph - N/A   Overcast
3:55 PM 33.1 °F 25.5 °F 30.2 °F 89% 29.95 in 5.0 mi WNW 9.2 mph - N/A   Overcast
4:14 PM 33.1 °F 26.9 °F 29.7 °F 87% 29.97 in 7.0 mi WNW 6.9 mph - N/A   Overcast
4:35 PM 32.9 °F 25.9 °F 29.3 °F 87% 29.98 in 7.0 mi WNW 8.1 mph - N/A   Overcast
4:55 PM 32.9 °F 26.7 °F 29.3 °F 87% 30.00 in 7.0 mi WNW 6.9 mph - N/A   Overcast
5:14 PM 32.9 °F 25.9 °F 28.6 °F 84% 30.02 in 7.0 mi WNW 8.1 mph - N/A   Overcast
5:35 PM 32.9 °F 24.7 °F 28.0 °F 82% 30.03 in 7.0 mi WNW 10.4 mph - N/A   Overcast
5:54 PM 33.1 °F 26.9 °F 27.9 °F 81% 30.04 in 7.0 mi WNW 6.9 mph - N/A   Overcast
6:14 PM 33.1 °F 26.9 °F 28.2 °F 82% 30.05 in 7.0 mi NW 6.9 mph - N/A   Overcast
6:35 PM 33.1 °F 24.9 °F 28.4 °F 83% 30.07 in 7.0 mi NW 10.4 mph - N/A   Overcast
6:54 PM 33.3 °F 24.1 °F 29.1 °F 85% 30.09 in 7.0 mi NW 12.7 mph - N/A   Overcast
7:14 PM 32.9 °F 25.3 °F 28.9 °F 85% 30.11 in 7.0 mi NNW 9.2 mph - N/A   Overcast
7:35 PM 32.5 °F 24.2 °F 28.9 °F 87% 30.12 in 7.0 mi NNW 10.4 mph - N/A   Overcast
7:54 PM 32.2 °F 23.8 °F 28.8 °F 87% 30.13 in 5.0 mi NNW 10.4 mph - N/A   Overcast
8:14 PM 32.0 °F 24.8 °F 28.4 °F 87% 30.14 in 10.0 mi North 8.1 mph - N/A   Overcast
8:35 PM 31.6 °F 24.4 °F 27.5 °F 85% 30.15 in 10.0 mi North 8.1 mph - N/A   Overcast
8:54 PM 31.5 °F 23.5 °F 27.1 °F 84% 30.16 in 10.0 mi North 9.2 mph - N/A   Overcast
9:14 PM 31.1 °F 21.9 °F 26.4 °F 83% 30.17 in 10.0 mi North 11.5 mph - N/A   Overcast
9:35 PM 30.9 °F 23.5 °F 26.1 °F 82% 30.19 in 10.0 mi North 8.1 mph - N/A   Overcast
10:35 PM 30.2 °F 22.6 °F 25.5 °F 83% 30.20 in 10.0 mi North 8.1 mph - N/A   Overcast
10:54 PM 30.2 °F 21.9 °F 24.4 °F 79% 30.22 in 10.0 mi North 9.2 mph - N/A   Overcast
11:15 PM 30.2 °F 21.9 °F 23.9 °F 77% 30.23 in 10.0 mi North 9.2 mph - N/A   Overcast
11:35 PM 30.0 °F 25.2 °F 24.3 °F 79% 30.24 in 10.0 mi North 4.6 mph - N/A   Overcast
11:54 PM 29.8 °F 24.9 °F 24.4 °F 80% 30.24 in 10.0 mi North 4.6 mph - N/A   Overcast